Helicity
85 96 97 96 95 95 94 89 88 97 102 108 109 120 117 61 57 -6 63 64 58 46 90 80 65 74 90 84 96 132 223 214 101 113 -8 -49 53 -64 28 72 107 103 144 122 261
61 64 80 92 95 96 97 100 85 82 93 103 106 114 127 69 -20 105 36 11 61 83 86 80 89 110 139 69 125 188 218 188 155 89 -1 -48 49 -20 31 16 50 69 84 151 377
91 80 79 85 95 100 96 97 98 105 96 96 96 91 131 73 14 48 96 41 61 54 55 87 97 125 143 97 114 151 160 133 59 43 40 -21 18 50 86 112 45 59 51 106 210
78 90 110 98 95 95 91 105 104 104 109 91 80 74 105 16 102 91 45 -25 8 27 42 47 91 165 159 146 45 103 57 101 87 57 74 52 22 79 119 111 46 73 77 95 162
80 92 94 83 94 93 97 98 102 96 81 76 71 46 19 71 48 70 59 57 60 66 65 85 106 132 107 92 62 62 42 44 86 92 49 19 39 63 28 34 62 71 55 115 164
58 55 66 70 73 82 97 101 110 91 75 60 52 34 22 82 43 86 148 92 62 92 86 117 81 82 105 100 101 91 64 71 77 107 76 57 40 80 19 61 93 58 46 43 196
59 56 49 52 49 71 97 106 114 121 78 54 29 14 53 73 52 73 48 43 54 83 82 72 122 133 177 103 106 72 39 22 64 77 71 36 25 122 3 51 31 -25 -11 46 70
48 38 39 43 52 81 99 127 131 118 53 35 36 38 67 48 85 55 75 61 37 33 53 42 73 105 95 114 99 90 59 58 114 122 88 103 16 99 34 42 44 -51 -40 18 58
37 24 26 32 65 102 126 149 153 104 45 52 81 84 71 87 63 99 107 74 105 82 79 72 95 99 133 124 107 119 84 92 60 73 105 108 67 120 -16 28 -23 -92 -54 19 64
51 42 31 28 69 106 154 161 40 39 63 73 133 105 62 102 122 119 101 67 70 91 88 95 155 179 182 186 138 149 167 169 119 100 107 143 148 137 38 2 -44 -105 -82 -33 32
55 48 39 35 78 126 170 -31 79 69 102 100 124 114 59 79 56 27 67 57 67 72 98 111 182 214 103 195 143 187 164 94 114 89 134 117 131 98 17 -27 -67 -125 -36 8 80
56 62 51 31 74 125 164 26 81 36 10 45 54 55 45 29 37 -81 12 65 67 93 118 131 136 98 116 108 111 115 112 77 67 85 129 130 126 77 51 40 40 -84 2 13 51
70 72 82 33 85 80 132 184 181 86 44 -24 91 96 90 112 187 -24 79 118 126 89 125 155 103 102 130 118 130 101 137 115 138 127 133 145 116 120 52 89 70 68 47 39 37
68 73 102 76 55 132 117 173 158 70 46 23 105 47 96 129 110 80 90 151 141 120 109 99 76 46 67 103 123 66 120 105 136 143 125 125 204 83 61 55 50 115 15 39 32
68 65 83 69 75 125 117 133 110 33 139 34 43 21 37 55 78 42 103 210 183 162 166 168 121 78 96 79 108 91 102 108 118 172 203 211 244 143 126 28 148 106 56 -28 3
52 54 69 62 54 89 133 140 74 176 293 125 32 45 88 52 86 162 126 91 74 103 102 86 88 93 70 53 61 72 80 145 161 182 221 240 228 126 95 26 84 144 -0 -12 -33
51 53 52 48 56 105 123 130 187 299 178 97 264 202 214 42 59 65 106 121 177 208 150 107 86 109 108 143 85 78 201 226 258 264 219 173 215 179 82 3 59 89 -22 -42 25
60 47 54 70 57 84 123 153 247 238 154 -96 -68 -18 99 113 14 71 120 94 105 133 131 154 132 105 105 81 90 156 175 250 297 191 119 135 240 130 56 -32 22 49 -51 -50 34
61 47 44 100 61 88 144 174 164 97 72 169 -11 -82 -68 93 227 64 98 114 83 79 128 111 127 50 82 68 45 80 208 145 198 187 184 160 68 43 -17 108 45 104 242 354 -24
57 32 34 89 141 142 147 140 134 118 113 169 119 112 79 167 166 180 118 183 126 170 107 149 182 56 81 86 110 100 145 210 221 243 154 162 58 4 34 -16 35 109 384 470 53
73 79 74 111 138 150 152 152 108 45 45 103 164 95 103 155 153 181 149 128 216 224 147 192 180 181 139 133 134 110 230 235 129 160 152 108 30 -7 -47 -116 -79 165 297 213 426
85 102 60 90 144 149 126 136 75 43 23 52 60 102 201 56 68 134 179 186 133 160 188 153 132 156 66 97 102 80 71 93 117 145 143 53 -48 -13 -145 -128 -270 4 305 386 47
104 77 46 123 132 104 132 53 48 24 25 31 63 73 215 71 44 7 16 30 40 85 138 154 221 173 78 95 125 117 71 54 -6 27 37 3 -38 -4 2 -86 -160 -170 184 284 293
144 135 111 90 113 94 43 34 17 27 24 24 28 41 141 113 92 33 -50 -87 40 98 78 101 85 126 79 90 91 78 54 103 43 -16 46 5 -62 58 3 -121 -169 -68 70 199 579
159 129 96 111 66 73 51 50 71 41 41 36 33 36 65 64 59 54 30 -40 34 134 116 105 99 91 94 62 39 3 -2 -40 34 29 -7 -78 2 142 105 25 -77 -68 -13 319 386
179 118 64 52 27 4 3 43 60 60 38 17 10 98 126 72 31 47 31 35 8 86 113 165 85 88 -11 10 3 -3 15 6 3 -2 29 2 -57 -12 25 130 17 -10 25 48 67
83 48 56 24 59 2 10 -11 -0 22 1 -61 22 27 25 26 7 21 -2 -3 17 35 47 43 71 66 6 21 28 -9 5 -12 -13 -10 -12 -35 -6 -7 -1 36 67 56 36 22 19
Wind_Speed
61 62 63 65 67 68 70 70 72 74 75 77 78 81 82 83 84 64 63 43 30 25 21 32 31 30 27 27 22 23 30 30 23 27 16 29 45 37 36 39 22 21 30 35 13
60 62 64 67 69 70 71 73 75 75 77 78 80 81 82 82 71 72 42 33 25 27 28 30 32 29 30 30 26 23 31 32 31 27 33 44 46 50 46 42 35 35 47 40 16
64 66 67 69 71 71 73 76 78 79 78 79 80 80 82 76 64 44 32 25 22 20 30 33 34 31 29 32 29 33 34 37 41 35 28 28 44 43 50 54 38 41 46 32 18
65 68 70 72 72 74 76 79 81 82 81 80 79 79 79 51 57 35 26 27 26 26 32 34 30 32 36 36 36 44 45 41 43 43 48 37 37 53 51 50 40 47 50 32 24
67 70 73 74 77 78 80 82 83 83 82 79 76 73 59 55 51 44 42 37 32 33 35 34 35 34 43 41 43 46 48 43 43 46 52 59 60 67 60 49 48 63 68 46 33
68 70 72 77 79 80 82 85 86 84 81 77 73 63 50 65 37 29 31 42 36 36 39 37 35 34 50 49 48 47 53 53 50 56 58 70 77 62 50 64 78 82 90 83 45
69 70 74 77 80 82 85 89 90 87 82 76 67 48 54 51 42 47 60 42 36 38 44 38 38 40 43 50 46 48 69 69 57 56 57 65 80 55 44 63 71 82 91 88 74
68 70 73 78 79 84 89 92 92 90 82 69 52 46 64 45 49 55 46 47 41 45 43 42 42 49 42 44 55 60 66 72 48 50 48 53 71 63 46 60 82 87 88 87 78
69 71 72 76 81 84 90 94 94 85 62 42 45 49 70 57 47 42 33 40 44 45 42 39 39 41 44 49 60 51 68 67 72 45 54 48 79 59 54 65 83 89 90 86 86
70 72 71 76 81 84 90 91 67 49 39 32 43 58 56 47 35 43 37 38 37 46 45 34 39 45 45 47 61 57 60 59 66 56 54 59 69 67 56 59 82 94 89 84 56
70 71 73 76 83 83 83 57 58 54 53 55 54 55 59 47 52 39 39 46 44 43 47 38 46 49 42 44 51 56 62 70 69 67 66 65 65 68 56 64 96 101 92 84 80
70 70 71 74 77 74 60 53 59 63 84 68 67 74 51 61 76 75 37 46 43 58 47 54 59 46 49 49 53 56 60 69 76 64 68 68 70 62 55 60 95 105 94 84 79
70 71 72 71 75 51 57 62 69 70 72 80 59 64 58 38 64 47 42 46 53 55 47 57 47 38 46 52 56 60 59 67 67 72 59 70 82 68 56 56 93 95 86 87 81
70 72 70 72 50 63 48 71 72 63 78 81 56 50 37 36 58 44 35 38 45 57 50 63 59 60 61 59 48 73 53 67 69 70 82 55 89 68 58 76 88 85 84 81 59
67 68 63 54 53 57 62 73 70 46 85 49 41 28 25 24 43 37 20 30 45 43 41 54 51 47 53 57 47 69 60 59 61 69 72 64 74 70 63 92 91 86 84 85 74
63 62 60 52 48 47 62 67 43 60 80 53 39 45 42 41 46 43 26 29 32 45 54 64 56 58 58 60 54 57 66 58 61 63 79 61 66 66 60 81 83 84 87 84 79
56 57 56 46 49 54 59 50 59 72 54 48 56 60 67 62 51 45 40 39 42 50 59 64 67 56 55 66 65 57 58 74 74 68 80 63 65 55 70 87 82 82 85 87 83
51 53 46 40 38 43 45 48 73 61 63 73 73 69 62 64 60 47 47 55 48 48 60 68 80 49 45 46 56 57 48 61 73 73 76 57 66 49 53 71 65 67 72 83 85
54 49 48 41 24 28 38 60 64 57 60 72 83 72 58 61 55 51 46 53 53 55 67 60 70 50 45 47 48 58 54 44 61 59 74 66 57 78 89 62 59 57 57 59 61
55 54 47 41 20 26 41 62 57 53 68 62 72 57 70 70 59 58 46 45 43 38 41 47 71 56 54 48 36 43 46 50 46 67 76 60 54 71 65 58 55 47 54 60 48
48 52 39 43 19 30 54 56 60 54 59 62 74 80 77 74 56 59 49 37 45 48 39 44 52 63 55 47 53 50 47 44 48 49 64 61 45 44 43 52 52 56 54 53 45
41 49 30 37 33 38 51 49 45 58 57 67 70 72 80 61 65 57 53 49 51 50 44 41 47 63 59 54 48 42 43 44 47 51 45 48 87 75 60 48 48 61 63 52 47
41 42 43 33 49 47 47 58 58 62 64 58 56 51 66 58 58 48 50 53 49 52 49 48 51 65 63 44 37 35 46 55 51 41 48 70 76 52 51 47 42 57 57 56 44
38 46 43 32 40 49 58 60 53 45 52 55 61 64 69 62 55 61 70 52 63 58 47 46 46 52 63 56 59 68 74 73 62 58 61 76 74 75 76 66 57 50 56 51 59
32 40 40 44 44 47 50 50 57 53 45 49 50 54 54 65 64 69 73 77 65 55 52 50 62 59 66 75 79 85 91 89 86 84 80 79 73 71 68 60 49 45 50 53 54
28 36 38 44 51 52 52 42 55 55 44 50 50 59 53 50 55 60 58 58 57 57 55 53 65 68 87 81 85 92 91 89 94 94 90 84 85 65 61 58 48 47 42 40 33
24 29 36 36 39 44 36 40 33 50 50 50 48 45 61 49 47 48 49 55 61 62 61 58 59 64 85 72 75 87 85 85 95 96 85 86 75 63 59 48 46 43 39 41 40
Wind_Direction
327 326 325 324 321 319 318 317 316 315 313 312 312 310 310 310 305 313 302 308 311 316 315 312 312 313 308 306 303 312 305 301 296 312 297 322 330 347 351 327 337 341 335 328 341
327 326 324 322 321 318 316 315 314 314 313 311 311 310 309 310 312 303 315 315 311 313 309 300 298 304 297 304 298 285 286 296 302 300 305 308 317 322 331 334 326 327 323 328 326
323 321 321 321 321 319 316 313 312 310 310 310 309 310 308 313 311 311 323 331 328 324 316 310 301 298 291 291 290 295 271 297 303 303 300 286 307 313 314 313 319 321 325 328 318
321 321 320 318 319 318 316 313 311 309 308 309 310 311 309 321 302 318 327 332 324 318 312 310 300 293 293 285 287 286 292 300 305 306 307 299 296 302 301 303 307 309 314 313 302
321 319 318 317 316 314 313 312 311 309 308 309 311 314 319 307 298 303 306 313 314 314 306 300 298 295 288 295 293 285 293 297 302 306 307 307 306 306 305 308 303 301 296 301 292
318 319 318 316 315 313 313 309 307 307 308 309 310 314 315 300 316 316 324 307 304 305 302 298 295 298 296 295 292 298 300 302 306 307 308 303 301 305 307 307 299 294 284 286 290
318 320 318 317 315 313 311 307 304 302 303 305 308 313 304 296 310 303 297 305 305 302 297 296 300 292 298 297 301 303 297 299 303 306 307 309 300 301 313 311 305 299 286 282 287
321 321 320 319 318 314 309 304 302 299 302 304 307 307 296 308 307 299 295 296 299 299 295 290 294 295 296 300 298 298 298 298 310 311 313 311 298 309 315 313 300 293 295 284 284
323 322 321 321 318 316 310 304 298 299 305 309 305 301 296 304 298 303 300 297 298 300 297 290 294 289 295 294 295 299 294 298 304 313 312 306 302 309 314 310 300 287 290 287 280
323 322 323 322 319 317 312 306 309 320 323 320 306 299 296 296 307 302 305 301 301 301 297 290 288 283 287 285 286 295 297 302 303 315 315 312 306 312 315 311 296 281 287 289 286
325 325 322 322 317 317 318 323 318 308 311 298 298 293 299 303 300 295 303 298 296 294 283 288 280 277 278 280 288 294 297 299 303 308 308 309 306 310 310 307 290 278 282 281 281
326 326 325 323 320 316 330 325 323 314 297 299 293 287 279 290 286 281 292 286 286 280 280 280 276 278 289 290 290 292 295 298 301 306 306 307 305 309 309 307 289 272 272 276 280
327 326 323 322 316 325 322 326 322 321 301 298 298 292 290 277 278 268 280 284 278 280 272 272 288 289 284 288 289 290 293 299 301 307 307 310 305 311 314 310 291 270 270 270 278
327 326 323 322 324 319 320 318 319 322 300 300 301 303 297 290 286 282 265 272 277 274 276 279 280 282 285 287 288 289 298 297 301 303 304 312 305 312 314 306 291 266 267 269 286
334 333 332 335 325 317 315 315 318 326 292 317 316 338 328 298 309 308 259 265 270 278 277 278 288 288 283 286 290 289 298 298 301 302 304 305 306 308 321 294 283 264 267 266 277
337 337 336 336 331 327 323 320 324 297 286 309 317 309 303 293 297 311 291 284 285 276 279 279 288 291 292 295 296 302 303 299 299 300 295 304 305 302 313 290 281 266 266 267 274
338 339 337 337 326 328 323 321 296 283 307 303 307 310 302 292 295 289 287 268 275 278 279 282 282 290 294 292 293 293 295 297 295 293 294 305 298 297 301 283 280 274 267 263 269
341 339 339 333 332 333 327 307 286 296 290 291 304 305 298 301 287 288 285 277 272 279 283 282 281 291 301 296 298 296 285 284 294 295 299 305 300 312 303 304 295 284 280 271 267
339 340 337 335 334 338 316 294 294 296 295 299 292 291 293 302 304 295 291 293 284 280 277 282 281 297 301 302 304 304 287 286 286 293 299 299 299 300 279 293 294 282 286 299 278
335 335 335 347 346 331 306 296 297 301 298 299 291 291 287 293 295 295 289 316 302 310 298 288 282 291 297 306 309 311 310 294 291 289 292 303 305 286 283 290 295 271 281 296 286
337 331 342 334 341 313 295 299 305 304 302 292 287 285 285 285 288 289 282 302 319 310 316 300 289 286 297 297 301 302 303 308 301 288 290 296 296 283 295 294 294 259 281 281 289
337 325 342 350 315 310 297 305 313 307 306 295 291 284 282 280 280 280 279 294 311 312 299 304 296 289 288 293 301 306 303 300 297 295 300 293 257 269 285 288 275 267 270 275 280
332 328 322 323 306 306 308 306 307 302 303 303 290 284 285 284 280 277 281 292 301 303 301 302 294 289 290 293 299 290 279 289 296 303 295 270 252 284 286 285 296 288 269 273 282
336 327 330 328 316 307 304 308 310 310 313 310 291 274 279 278 278 277 277 285 292 292 298 298 290 287 282 286 288 284 283 281 283 285 283 261 258 269 271 267 274 292 269 276 266
338 328 327 320 317 314 312 311 305 307 314 312 296 278 277 279 280 277 277 278 286 293 290 290 283 286 285 280 278 277 274 270 267 261 261 258 259 269 280 266 271 278 274 274 265
333 331 334 320 310 307 310 313 307 305 305 301 297 273 278 286 287 281 283 282 282 287 288 293 284 281 272 278 277 273 269 267 262 250 253 254 252 280 286 274 265 261 273 281 290
336 331 330 324 319 312 318 320 329 279 275 249 266 267 261 277 295 293 291 285 279 282 284 286 285 284 269 281 280 271 269 269 256 249 251 248 260 273 281 274 283 284 284 290 302